Time,TemperatureF,DewpointF,PressureIn,WindDirection,WindDirectionDegrees,WindSpeedMPH,WindSpeedGustMPH,Humidity,HourlyPrecipIn,Conditions,Clouds,dailyrainin,SolarRadiationWatts/m^2,SoftwareType,DateUTC
2013-06-07 00:02:00,59.5,56.7,30.10,SE,146,0.0,2.0,90,0.00,,,0.00,0.0,meteohub,2013-06-07 10:02:00,
2013-06-07 00:07:00,59.5,56.7,30.10,SE,142,1.0,2.0,90,0.00,,,0.00,0.0,meteohub,2013-06-07 10:07:00,
2013-06-07 00:12:00,59.4,56.1,30.10,East,82,2.0,2.0,89,0.00,,,0.00,0.0,meteohub,2013-06-07 10:12:00,
2013-06-07 00:17:00,59.2,55.6,30.10,East,100,1.0,3.0,88,0.00,,,0.00,0.0,meteohub,2013-06-07 10:17:00,
2013-06-07 00:22:00,58.6,54.9,30.10,East,101,5.0,5.0,87,0.00,,,0.00,0.0,meteohub,2013-06-07 10:22:00,
2013-06-07 00:27:00,58.5,54.3,30.09,East,96,1.0,6.0,86,0.00,,,0.00,0.0,meteohub,2013-06-07 10:27:00,
2013-06-07 00:32:00,58.5,54.3,30.10,SE,129,0.0,6.0,86,0.00,,,0.00,0.0,meteohub,2013-06-07 10:32:00,
2013-06-07 00:37:00,58.3,54.5,30.09,ESE,119,1.0,6.0,87,0.00,,,0.00,0.0,meteohub,2013-06-07 10:37:00,
2013-06-07 00:42:00,57.9,54.1,30.09,East,84,2.0,5.0,87,0.00,,,0.00,0.0,meteohub,2013-06-07 10:42:00,
2013-06-07 00:47:00,57.7,53.6,30.09,East,84,2.0,4.0,86,0.00,,,0.00,0.0,meteohub,2013-06-07 10:47:00,
2013-06-07 00:52:00,57.6,53.4,30.09,ESE,104,1.0,4.0,86,0.00,,,0.00,0.0,meteohub,2013-06-07 10:52:00,
2013-06-07 00:57:00,57.4,53.6,30.09,East,98,1.0,5.0,87,0.00,,,0.00,0.0,meteohub,2013-06-07 10:57:00,
2013-06-07 01:02:00,57.0,52.9,30.09,ENE,67,3.0,5.0,86,0.00,,,0.00,0.0,meteohub,2013-06-07 11:02:00,
2013-06-07 01:07:00,56.7,52.5,30.09,East,79,3.0,4.0,86,0.00,,,0.00,0.0,meteohub,2013-06-07 11:07:00,
2013-06-07 01:12:00,56.5,52.3,30.08,East,96,0.0,5.0,86,0.00,,,0.00,0.0,meteohub,2013-06-07 11:12:00,
2013-06-07 01:18:00,56.1,52.0,30.08,East,86,1.0,5.0,86,0.00,,,0.00,0.0,meteohub,2013-06-07 11:18:00,
2013-06-07 01:23:00,55.9,51.8,30.08,ESE,102,3.0,5.0,86,0.00,,,0.00,0.0,meteohub,2013-06-07 11:23:00,
2013-06-07 01:27:00,55.9,51.4,30.08,ESE,118,1.0,4.0,85,0.00,,,0.00,0.0,meteohub,2013-06-07 11:27:00,
2013-06-07 01:33:00,55.8,51.3,30.08,SE,126,3.0,5.0,85,0.00,,,0.00,0.0,meteohub,2013-06-07 11:33:00,
2013-06-07 01:37:00,55.6,51.4,30.08,ENE,64,2.0,5.0,86,0.00,,,0.00,0.0,meteohub,2013-06-07 11:37:00,
2013-06-07 01:43:00,55.6,51.8,30.08,East,86,1.0,5.0,87,0.00,,,0.00,0.0,meteohub,2013-06-07 11:43:00,
2013-06-07 01:48:00,55.8,52.0,30.07,ESE,102,1.0,5.0,87,0.00,,,0.00,0.0,meteohub,2013-06-07 11:48:00,
2013-06-07 01:53:00,55.9,52.2,30.07,East,91,0.0,4.0,87,0.00,,,0.00,0.0,meteohub,2013-06-07 11:53:00,
2013-06-07 01:58:00,56.1,52.3,30.07,East,86,2.0,4.0,87,0.00,,,0.00,0.0,meteohub,2013-06-07 11:58:00,
2013-06-07 02:03:00,56.3,52.5,30.07,East,87,1.0,4.0,87,0.00,,,0.00,0.0,meteohub,2013-06-07 12:03:00,
2013-06-07 02:08:00,56.5,52.3,30.07,East,90,2.0,4.0,86,0.00,,,0.00,0.0,meteohub,2013-06-07 12:08:00,
2013-06-07 02:13:00,56.7,52.5,30.07,ENE,75,1.0,3.0,86,0.00,,,0.00,0.0,meteohub,2013-06-07 12:13:00,
2013-06-07 02:18:00,56.7,52.5,30.07,East,82,2.0,3.0,86,0.00,,,0.00,0.0,meteohub,2013-06-07 12:18:00,
2013-06-07 02:23:00,56.7,52.5,30.07,ENE,77,2.0,3.0,86,0.00,,,0.00,0.0,meteohub,2013-06-07 12:23:00,
2013-06-07 02:28:00,56.8,52.3,30.07,SE,125,1.0,3.0,85,0.00,,,0.00,0.0,meteohub,2013-06-07 12:28:00,
2013-06-07 02:33:00,56.8,52.3,30.06,East,82,2.0,3.0,85,0.00,,,0.00,0.0,meteohub,2013-06-07 12:33:00,
2013-06-07 02:38:00,57.0,52.5,30.06,ESE,112,1.0,4.0,85,0.00,,,0.00,0.0,meteohub,2013-06-07 12:38:00,
2013-06-07 02:43:00,57.2,53.1,30.06,East,101,2.0,4.0,86,0.00,,,0.00,0.0,meteohub,2013-06-07 12:43:00,
2013-06-07 02:48:00,57.2,52.7,30.06,East,87,1.0,4.0,85,0.00,,,0.00,0.0,meteohub,2013-06-07 12:48:00,
2013-06-07 02:53:00,57.4,52.9,30.06,East,88,1.0,4.0,85,0.00,,,0.00,0.0,meteohub,2013-06-07 12:53:00,
2013-06-07 02:58:00,57.4,52.5,30.06,ENE,75,3.0,5.0,84,0.00,,,0.00,0.0,meteohub,2013-06-07 12:58:00,
2013-06-07 03:03:00,57.2,52.7,30.06,East,90,1.0,5.0,85,0.00,,,0.00,0.0,meteohub,2013-06-07 13:03:00,
2013-06-07 03:08:00,56.8,52.3,30.06,ESE,110,1.0,4.0,85,0.00,,,0.00,0.0,meteohub,2013-06-07 13:08:00,
2013-06-07 03:13:00,56.8,52.3,30.06,East,88,1.0,5.0,85,0.00,,,0.00,0.0,meteohub,2013-06-07 13:13:00,
2013-06-07 03:18:00,56.5,52.3,30.06,East,94,5.0,5.0,86,0.00,,,0.00,0.0,meteohub,2013-06-07 13:18:00,
2013-06-07 03:23:00,56.3,52.2,30.06,East,89,1.0,5.0,86,0.00,,,0.00,0.0,meteohub,2013-06-07 13:23:00,
2013-06-07 03:28:00,56.1,52.3,30.06,East,90,1.0,5.0,87,0.00,,,0.00,0.0,meteohub,2013-06-07 13:28:00,
2013-06-07 03:33:00,55.6,51.8,30.06,East,83,1.0,5.0,87,0.00,,,0.00,0.0,meteohub,2013-06-07 13:33:00,
2013-06-07 03:38:00,55.0,51.6,30.06,East,85,0.0,3.0,88,0.00,,,0.00,0.0,meteohub,2013-06-07 13:38:00,
2013-06-07 03:43:00,54.9,51.4,30.06,ENE,73,3.0,5.0,88,0.00,,,0.00,0.0,meteohub,2013-06-07 13:43:00,
2013-06-07 03:48:00,54.9,51.1,30.06,East,95,1.0,5.0,87,0.00,,,0.00,0.0,meteohub,2013-06-07 13:48:00,
2013-06-07 03:53:00,54.7,50.9,30.06,ENE,73,3.0,5.0,87,0.00,,,0.00,0.0,meteohub,2013-06-07 13:53:00,
2013-06-07 03:58:00,54.5,50.4,30.06,ENE,76,2.0,5.0,86,0.00,,,0.00,0.0,meteohub,2013-06-07 13:58:00,
2013-06-07 04:03:00,54.3,49.8,30.06,ENE,74,3.0,5.0,85,0.00,,,0.00,0.0,meteohub,2013-06-07 14:03:00,
2013-06-07 04:08:00,54.3,49.8,30.06,East,85,1.0,6.0,85,0.00,,,0.00,0.0,meteohub,2013-06-07 14:08:00,
2013-06-07 04:13:00,54.1,49.8,30.06,East,91,0.0,6.0,85,0.00,,,0.00,0.0,meteohub,2013-06-07 14:13:00,
2013-06-07 04:18:00,53.6,49.5,30.06,East,101,0.0,6.0,86,0.00,,,0.00,0.0,meteohub,2013-06-07 14:18:00,
2013-06-07 04:23:00,53.2,49.8,30.06,East,79,2.0,5.0,88,0.00,,,0.00,0.0,meteohub,2013-06-07 14:23:00,
2013-06-07 04:28:00,53.1,49.6,30.06,East,92,1.0,3.0,88,0.00,,,0.00,0.0,meteohub,2013-06-07 14:28:00,
2013-06-07 04:33:00,52.9,49.6,30.06,ENE,70,4.0,4.0,89,0.00,,,0.00,0.0,meteohub,2013-06-07 14:33:00,
2013-06-07 04:38:00,52.9,49.5,30.06,East,92,1.0,4.0,88,0.00,,,0.00,0.0,meteohub,2013-06-07 14:38:00,
2013-06-07 04:43:00,52.9,49.5,30.06,East,88,2.0,4.0,88,0.00,,,0.00,0.0,meteohub,2013-06-07 14:43:00,
2013-06-07 04:48:00,52.9,49.5,30.07,ENE,76,2.0,4.0,88,0.00,,,0.00,0.0,meteohub,2013-06-07 14:48:00,
2013-06-07 04:53:00,53.1,50.2,30.07,ENE,75,4.0,4.0,90,0.00,,,0.00,0.0,meteohub,2013-06-07 14:53:00,
2013-06-07 04:58:00,53.4,50.0,30.07,ENE,77,3.0,5.0,88,0.00,,,0.00,0.0,meteohub,2013-06-07 14:58:00,
2013-06-07 05:03:00,53.4,50.0,30.07,East,84,3.0,5.0,88,0.00,,,0.00,0.0,meteohub,2013-06-07 15:03:00,
2013-06-07 05:08:00,53.4,50.0,30.07,East,82,1.0,5.0,88,0.00,,,0.00,0.0,meteohub,2013-06-07 15:08:00,
2013-06-07 05:13:00,53.1,49.8,30.07,ENE,66,3.0,5.0,89,0.00,,,0.00,0.0,meteohub,2013-06-07 15:13:00,
2013-06-07 05:18:00,53.2,50.0,30.07,East,86,1.0,5.0,89,0.00,,,0.00,0.0,meteohub,2013-06-07 15:18:00,
2013-06-07 05:23:00,53.4,50.0,30.07,ENE,66,0.0,5.0,88,0.00,,,0.00,0.0,meteohub,2013-06-07 15:23:00,
2013-06-07 05:28:00,53.4,50.0,30.07,East,85,0.0,5.0,88,0.00,,,0.00,0.0,meteohub,2013-06-07 15:28:00,
2013-06-07 05:33:00,53.2,50.0,30.08,East,94,1.0,5.0,89,0.00,,,0.00,0.0,meteohub,2013-06-07 15:33:00,
2013-06-07 05:38:00,53.2,50.0,30.08,East,85,2.0,5.0,89,0.00,,,0.00,0.0,meteohub,2013-06-07 15:38:00,
2013-06-07 05:43:00,53.4,50.5,30.08,East,88,1.0,3.0,90,0.00,,,0.00,0.0,meteohub,2013-06-07 15:43:00,
2013-06-07 05:48:00,53.8,50.5,30.08,ESE,104,2.0,3.0,89,0.00,,,0.00,5.0,meteohub,2013-06-07 15:48:00,
2013-06-07 05:53:00,53.8,50.4,30.08,ENE,78,1.0,4.0,88,0.00,,,0.00,7.0,meteohub,2013-06-07 15:53:00,
2013-06-07 05:58:00,53.8,50.4,30.08,East,80,1.0,4.0,88,0.00,,,0.00,9.0,meteohub,2013-06-07 15:58:00,
2013-06-07 06:03:00,53.4,50.0,30.08,East,88,1.0,4.0,88,0.00,,,0.00,11.0,meteohub,2013-06-07 16:03:00,
2013-06-07 06:08:00,53.2,50.0,30.08,East,83,1.0,3.0,89,0.00,,,0.00,12.0,meteohub,2013-06-07 16:08:00,
2013-06-07 06:13:00,53.1,50.2,30.08,ENE,75,1.0,3.0,90,0.00,,,0.00,14.0,meteohub,2013-06-07 16:13:00,
2013-06-07 06:18:00,53.4,50.5,30.08,ENE,76,1.0,3.0,90,0.00,,,0.00,16.0,meteohub,2013-06-07 16:18:00,
2013-06-07 06:23:00,53.8,50.4,30.08,East,86,2.0,5.0,88,0.00,,,0.00,18.0,meteohub,2013-06-07 16:23:00,
2013-06-07 06:29:00,53.6,50.2,30.08,East,85,1.0,5.0,88,0.00,,,0.00,19.0,meteohub,2013-06-07 16:29:00,
2013-06-07 06:33:00,53.4,50.5,30.08,East,90,1.0,5.0,90,0.00,,,0.00,21.0,meteohub,2013-06-07 16:33:00,
2013-06-07 06:39:00,53.2,50.4,30.08,East,85,2.0,4.0,90,0.00,,,0.00,21.0,meteohub,2013-06-07 16:39:00,
2013-06-07 06:44:00,53.4,50.5,30.08,East,98,0.0,3.0,90,0.00,,,0.00,23.0,meteohub,2013-06-07 16:44:00,
2013-06-07 06:49:00,53.6,51.1,30.08,East,86,1.0,3.0,91,0.00,,,0.00,23.0,meteohub,2013-06-07 16:49:00,
2013-06-07 06:54:00,53.8,51.3,30.09,East,87,0.0,3.0,91,0.00,,,0.00,25.0,meteohub,2013-06-07 16:54:00,
2013-06-07 06:59:00,54.0,51.4,30.09,East,87,1.0,3.0,91,0.00,,,0.00,25.0,meteohub,2013-06-07 16:59:00,
2013-06-07 07:04:00,54.1,51.6,30.09,East,89,0.0,3.0,91,0.00,,,0.00,26.0,meteohub,2013-06-07 17:04:00,
2013-06-07 07:09:00,54.7,52.2,30.09,East,88,1.0,3.0,91,0.00,,,0.00,26.0,meteohub,2013-06-07 17:09:00,
2013-06-07 07:14:00,55.0,52.2,30.09,East,87,0.0,2.0,90,0.00,,,0.00,28.0,meteohub,2013-06-07 17:14:00,
2013-06-07 07:19:00,55.6,52.7,30.09,East,89,0.0,2.0,90,0.00,,,0.00,28.0,meteohub,2013-06-07 17:19:00,
2013-06-07 07:24:00,56.1,53.2,30.08,East,88,0.0,2.0,90,0.00,,,0.00,30.0,meteohub,2013-06-07 17:24:00,
2013-06-07 07:29:00,57.0,54.1,30.09,East,88,0.0,2.0,90,0.00,,,0.00,32.0,meteohub,2013-06-07 17:29:00,
2013-06-07 07:34:00,58.1,54.9,30.09,East,89,0.0,1.0,89,0.00,,,0.00,32.0,meteohub,2013-06-07 17:34:00,
2013-06-07 07:39:00,58.8,55.2,30.08,East,88,0.0,1.0,88,0.00,,,0.00,32.0,meteohub,2013-06-07 17:39:00,
2013-06-07 07:44:00,59.5,55.6,30.08,East,89,0.0,1.0,87,0.00,,,0.00,32.0,meteohub,2013-06-07 17:44:00,
2013-06-07 07:49:00,60.4,56.3,30.08,East,88,0.0,1.0,86,0.00,,,0.00,33.0,meteohub,2013-06-07 17:49:00,
2013-06-07 07:54:00,61.5,56.3,30.08,SW,229,0.0,1.0,83,0.00,,,0.00,33.0,meteohub,2013-06-07 17:54:00,
2013-06-07 07:59:00,62.4,57.2,30.08,WNW,282,0.0,2.0,83,0.00,,,0.00,33.0,meteohub,2013-06-07 17:59:00,
2013-06-07 08:04:00,63.5,57.6,30.08,WSW,253,1.0,2.0,81,0.00,,,0.00,35.0,meteohub,2013-06-07 18:04:00,
2013-06-07 08:09:00,63.9,58.3,30.08,WNW,283,1.0,2.0,82,0.00,,,0.00,35.0,meteohub,2013-06-07 18:09:00,
2013-06-07 08:15:00,64.2,57.9,30.08,West,275,1.0,3.0,80,0.00,,,0.00,37.0,meteohub,2013-06-07 18:15:00,
2013-06-07 08:20:00,64.2,58.3,30.08,WNW,295,0.0,3.0,81,0.00,,,0.00,37.0,meteohub,2013-06-07 18:20:00,
2013-06-07 08:25:00,64.6,59.0,30.08,WNW,285,0.0,3.0,82,0.00,,,0.00,37.0,meteohub,2013-06-07 18:25:00,
2013-06-07 08:30:00,64.6,59.0,30.08,WSW,258,0.0,3.0,82,0.00,,,0.00,37.0,meteohub,2013-06-07 18:30:00,
2013-06-07 08:35:00,64.6,59.0,30.08,WSW,242,0.0,3.0,82,0.00,,,0.00,37.0,meteohub,2013-06-07 18:35:00,
2013-06-07 08:40:00,64.9,59.4,30.08,SW,232,2.0,3.0,82,0.00,,,0.00,42.0,meteohub,2013-06-07 18:40:00,
2013-06-07 08:45:00,65.3,59.4,30.08,SW,226,0.0,3.0,81,0.00,,,0.00,39.0,meteohub,2013-06-07 18:45:00,
2013-06-07 08:50:00,65.5,59.5,30.08,WSW,257,0.0,3.0,81,0.00,,,0.00,40.0,meteohub,2013-06-07 18:50:00,
2013-06-07 08:55:00,66.0,60.4,30.08,WSW,241,1.0,3.0,82,0.00,,,0.00,72.0,meteohub,2013-06-07 18:55:00,
2013-06-07 09:00:00,66.0,60.1,30.08,NW,319,1.0,4.0,81,0.00,,,0.00,47.0,meteohub,2013-06-07 19:00:00,
2013-06-07 09:05:00,66.0,59.7,30.08,WNW,282,1.0,4.0,80,0.00,,,0.00,74.0,meteohub,2013-06-07 19:05:00,
2013-06-07 09:10:00,66.0,60.1,30.08,WSW,251,0.0,5.0,81,0.00,,,0.00,93.0,meteohub,2013-06-07 19:10:00,
2013-06-07 09:15:00,66.6,61.0,30.08,WNW,284,1.0,5.0,82,0.00,,,0.00,135.0,meteohub,2013-06-07 19:15:00,
2013-06-07 09:20:00,66.9,61.0,30.08,West,276,4.0,5.0,81,0.00,,,0.00,278.0,meteohub,2013-06-07 19:20:00,
2013-06-07 09:25:00,66.7,61.3,30.08,WSW,246,0.0,5.0,83,0.00,,,0.00,156.0,meteohub,2013-06-07 19:25:00,
2013-06-07 09:31:00,66.4,61.3,30.08,WSW,244,0.0,5.0,84,0.00,,,0.00,139.0,meteohub,2013-06-07 19:31:00,
2013-06-07 09:36:00,66.6,61.9,30.08,WNW,303,2.0,5.0,85,0.00,,,0.00,302.0,meteohub,2013-06-07 19:36:00,
2013-06-07 09:41:00,66.4,61.7,30.08,WNW,288,1.0,4.0,85,0.00,,,0.00,220.0,meteohub,2013-06-07 19:41:00,
2013-06-07 09:46:00,65.8,61.5,30.08,WSW,241,3.0,4.0,86,0.00,,,0.00,315.0,meteohub,2013-06-07 19:46:00,
2013-06-07 09:51:00,65.7,61.7,30.08,WSW,249,1.0,4.0,87,0.00,,,0.00,302.0,meteohub,2013-06-07 19:51:00,
2013-06-07 09:56:00,66.2,61.9,30.08,West,271,0.0,4.0,86,0.00,,,0.00,306.0,meteohub,2013-06-07 19:56:00,
2013-06-07 10:02:00,66.7,61.7,30.08,WSW,246,3.0,4.0,84,0.00,,,0.00,352.0,meteohub,2013-06-07 20:02:00,
2013-06-07 10:07:00,66.7,61.3,30.08,WSW,246,3.0,4.0,83,0.00,,,0.00,288.0,meteohub,2013-06-07 20:07:00,
2013-06-07 10:12:00,66.7,62.1,30.07,WNW,286,0.0,5.0,85,0.00,,,0.00,172.0,meteohub,2013-06-07 20:12:00,
2013-06-07 10:17:00,66.6,61.2,30.07,WSW,243,0.0,5.0,83,0.00,,,0.00,185.0,meteohub,2013-06-07 20:17:00,
2013-06-07 10:22:00,66.4,61.0,30.07,WSW,244,0.0,5.0,83,0.00,,,0.00,271.0,meteohub,2013-06-07 20:22:00,
2013-06-07 10:27:00,66.4,61.7,30.07,SSW,202,0.0,4.0,85,0.00,,,0.00,285.0,meteohub,2013-06-07 20:27:00,
2013-06-07 10:32:00,66.4,61.3,30.07,SW,236,0.0,3.0,84,0.00,,,0.00,336.0,meteohub,2013-06-07 20:32:00,
2013-06-07 10:37:00,66.4,61.7,30.06,SW,236,0.0,5.0,85,0.00,,,0.00,374.0,meteohub,2013-06-07 20:37:00,
2013-06-07 10:43:00,66.6,61.9,30.06,NW,306,1.0,5.0,85,0.00,,,0.00,294.0,meteohub,2013-06-07 20:43:00,
2013-06-07 10:48:00,66.6,61.5,30.06,WSW,242,2.0,5.0,84,0.00,,,0.00,246.0,meteohub,2013-06-07 20:48:00,
2013-06-07 10:54:00,66.4,61.3,30.06,West,266,1.0,6.0,84,0.00,,,0.00,373.0,meteohub,2013-06-07 20:54:00,
2013-06-07 10:59:00,66.4,61.7,30.06,SW,225,1.0,6.0,85,0.00,,,0.00,288.0,meteohub,2013-06-07 20:59:00,
2013-06-07 11:04:00,66.0,61.3,30.06,West,272,1.0,6.0,85,0.00,,,0.00,230.0,meteohub,2013-06-07 21:04:00,
2013-06-07 11:09:00,66.4,62.1,30.06,West,269,1.0,4.0,86,0.00,,,0.00,193.0,meteohub,2013-06-07 21:09:00,
2013-06-07 11:14:00,66.0,61.7,30.06,North,0,2.0,4.0,86,0.00,,,0.00,181.0,meteohub,2013-06-07 21:14:00,
2013-06-07 11:20:00,65.8,61.5,30.06,SW,220,0.0,4.0,86,0.00,,,0.00,167.0,meteohub,2013-06-07 21:20:00,
2013-06-07 11:25:00,65.8,61.9,30.06,West,259,0.0,4.0,87,0.00,,,0.00,134.0,meteohub,2013-06-07 21:25:00,
2013-06-07 11:30:00,65.5,61.9,30.06,WSW,251,0.0,4.0,88,0.00,,,0.00,179.0,meteohub,2013-06-07 21:30:00,
2013-06-07 11:35:00,65.5,61.9,30.06,WSW,253,2.0,7.0,88,0.00,,,0.00,253.0,meteohub,2013-06-07 21:35:00,
2013-06-07 11:40:00,65.1,61.5,30.06,West,259,1.0,7.0,88,0.00,,,0.00,163.0,meteohub,2013-06-07 21:40:00,
2013-06-07 11:45:00,64.8,61.5,30.06,WSW,238,1.0,8.0,89,0.00,,,0.00,100.0,meteohub,2013-06-07 21:45:00,
2013-06-07 11:50:00,64.6,61.3,30.06,WSW,237,1.0,8.0,89,0.00,,,0.00,137.0,meteohub,2013-06-07 21:50:00,
2013-06-07 11:55:00,64.0,61.0,30.06,SSW,212,1.0,8.0,90,0.00,,,0.00,181.0,meteohub,2013-06-07 21:55:00,
2013-06-07 12:00:00,64.2,61.5,30.06,SW,234,0.0,4.0,91,0.00,,,0.00,163.0,meteohub,2013-06-07 22:00:00,
2013-06-07 12:06:00,64.2,61.5,30.06,SW,227,0.0,4.0,91,0.00,,,0.00,160.0,meteohub,2013-06-07 22:06:00,
2013-06-07 12:11:00,64.2,61.2,30.05,WSW,253,1.0,4.0,90,0.00,,,0.00,230.0,meteohub,2013-06-07 22:11:00,
2013-06-07 12:16:00,64.6,61.5,30.05,SW,232,3.0,3.0,90,0.00,,,0.00,338.0,meteohub,2013-06-07 22:16:00,
2013-06-07 12:22:00,64.9,61.9,30.05,WSW,248,0.0,4.0,90,0.00,,,0.00,487.0,meteohub,2013-06-07 22:22:00,
2013-06-07 12:27:00,65.5,62.4,30.05,WSW,248,0.0,4.0,90,0.00,,,0.00,559.0,meteohub,2013-06-07 22:27:00,
2013-06-07 12:32:00,66.0,62.4,30.05,South,190,1.0,6.0,88,0.00,,,0.00,552.0,meteohub,2013-06-07 22:32:00,
2013-06-07 12:37:00,66.4,62.1,30.05,SSE,159,0.0,6.0,86,0.00,,,0.00,454.0,meteohub,2013-06-07 22:37:00,
2013-06-07 12:42:00,66.6,61.5,30.04,NW,323,1.0,6.0,84,0.00,,,0.00,373.0,meteohub,2013-06-07 22:42:00,
2013-06-07 12:47:00,66.9,61.5,30.05,SW,229,2.0,5.0,83,0.00,,,0.00,316.0,meteohub,2013-06-07 22:47:00,
2013-06-07 12:52:00,66.9,61.2,30.04,WSW,240,0.0,6.0,82,0.00,,,0.00,348.0,meteohub,2013-06-07 22:52:00,
2013-06-07 12:57:00,67.3,61.5,30.04,NW,313,2.0,6.0,82,0.00,,,0.00,278.0,meteohub,2013-06-07 22:57:00,
2013-06-07 13:03:00,67.1,61.2,30.04,North,5,0.0,4.0,81,0.00,,,0.00,253.0,meteohub,2013-06-07 23:03:00,
2013-06-07 13:08:00,67.3,61.5,30.04,NW,306,2.0,4.0,82,0.00,,,0.00,186.0,meteohub,2013-06-07 23:08:00,
2013-06-07 13:13:00,67.3,61.5,30.04,North,0,2.0,4.0,82,0.00,,,0.00,218.0,meteohub,2013-06-07 23:13:00,
2013-06-07 13:18:00,67.3,61.5,30.04,WSW,244,1.0,6.0,82,0.00,,,0.00,257.0,meteohub,2013-06-07 23:18:00,
2013-06-07 13:23:00,67.3,61.5,30.04,WSW,242,2.0,6.0,82,0.00,,,0.00,367.0,meteohub,2013-06-07 23:23:00,
2013-06-07 13:28:00,67.5,61.7,30.03,West,268,2.0,6.0,82,0.00,,,0.00,513.0,meteohub,2013-06-07 23:28:00,
2013-06-07 13:33:00,67.8,62.4,30.03,WSW,244,2.0,6.0,83,0.00,,,0.00,629.0,meteohub,2013-06-07 23:33:00,
2013-06-07 13:38:00,68.5,62.8,30.03,WSW,241,2.0,6.0,82,0.00,,,0.00,1471.0,meteohub,2013-06-07 23:38:00,
2013-06-07 13:43:00,69.1,63.0,30.03,WNW,295,4.0,8.0,81,0.00,,,0.00,422.0,meteohub,2013-06-07 23:43:00,
2013-06-07 13:48:00,69.1,62.6,30.03,WSW,251,2.0,9.0,80,0.00,,,0.00,462.0,meteohub,2013-06-07 23:48:00,
2013-06-07 13:54:00,69.1,63.3,30.03,SW,217,3.0,9.0,82,0.00,,,0.00,485.0,meteohub,2013-06-07 23:54:00,
2013-06-07 13:59:00,68.7,61.9,30.03,SSW,207,4.0,9.0,79,0.00,,,0.00,394.0,meteohub,2013-06-07 23:59:00,
2013-06-07 14:04:00,68.5,62.1,30.02,West,261,1.0,8.0,80,0.00,,,0.00,425.0,meteohub,2013-06-08 00:04:00,
2013-06-07 14:09:00,68.5,62.1,30.02,WNW,283,4.0,8.0,80,0.00,,,0.00,513.0,meteohub,2013-06-08 00:09:00,
2013-06-07 14:14:00,68.5,62.4,30.02,West,259,0.0,8.0,81,0.00,,,0.00,378.0,meteohub,2013-06-08 00:14:00,
2013-06-07 14:20:00,68.5,61.0,30.02,WSW,241,1.0,8.0,77,0.00,,,0.00,397.0,meteohub,2013-06-08 00:20:00,
2013-06-07 14:25:00,68.4,61.2,30.02,SSW,198,2.0,8.0,78,0.00,,,0.00,373.0,meteohub,2013-06-08 00:25:00,
2013-06-07 14:30:00,68.4,62.2,30.02,SW,227,1.0,6.0,81,0.00,,,0.00,267.0,meteohub,2013-06-08 00:30:00,
2013-06-07 14:35:00,67.8,62.1,30.02,WNW,295,2.0,7.0,82,0.00,,,0.00,255.0,meteohub,2013-06-08 00:35:00,
2013-06-07 14:40:00,67.6,62.6,30.02,West,263,1.0,7.0,84,0.00,,,0.00,183.0,meteohub,2013-06-08 00:40:00,
2013-06-07 14:45:00,67.3,61.9,30.02,SSW,213,1.0,7.0,83,0.00,,,0.00,165.0,meteohub,2013-06-08 00:45:00,
2013-06-07 14:50:00,66.7,61.7,30.02,South,184,2.0,5.0,84,0.00,,,0.00,237.0,meteohub,2013-06-08 00:50:00,
2013-06-07 14:55:00,66.6,61.9,30.02,SW,215,0.0,5.0,85,0.00,,,0.00,271.0,meteohub,2013-06-08 00:55:00,
2013-06-07 15:01:00,66.7,62.4,30.02,SW,229,0.0,5.0,86,0.00,,,0.00,420.0,meteohub,2013-06-08 01:01:00,
2013-06-07 15:06:00,66.9,62.2,30.02,WSW,237,0.0,4.0,85,0.00,,,0.00,292.0,meteohub,2013-06-08 01:06:00,
2013-06-07 15:11:00,66.9,62.6,30.02,SSW,213,2.0,6.0,86,0.00,,,0.00,394.0,meteohub,2013-06-08 01:11:00,
2013-06-07 15:16:00,66.9,62.6,30.02,SSW,205,2.0,6.0,86,0.00,,,0.00,575.0,meteohub,2013-06-08 01:16:00,
2013-06-07 15:21:00,66.9,63.0,30.02,SW,214,0.0,6.0,87,0.00,,,0.00,534.0,meteohub,2013-06-08 01:21:00,
2013-06-07 15:27:00,67.5,63.1,30.02,SSW,210,3.0,6.0,86,0.00,,,0.00,765.0,meteohub,2013-06-08 01:27:00,
2013-06-07 15:32:00,67.3,63.0,30.02,SSW,211,1.0,6.0,86,0.00,,,0.00,334.0,meteohub,2013-06-08 01:32:00,
2013-06-07 15:37:00,66.9,62.6,30.02,WNW,290,2.0,6.0,86,0.00,,,0.00,366.0,meteohub,2013-06-08 01:37:00,
2013-06-07 15:42:00,66.9,63.3,30.02,WSW,241,2.0,7.0,88,0.00,,,0.00,332.0,meteohub,2013-06-08 01:42:00,
2013-06-07 15:47:00,67.3,63.0,30.02,West,277,2.0,7.0,86,0.00,,,0.00,448.0,meteohub,2013-06-08 01:47:00,
2013-06-07 15:52:00,67.6,63.3,30.02,SW,225,0.0,7.0,86,0.00,,,0.00,350.0,meteohub,2013-06-08 01:52:00,
2013-06-07 15:57:00,67.6,63.0,30.01,WSW,240,3.0,7.0,85,0.00,,,0.00,315.0,meteohub,2013-06-08 01:57:00,
2013-06-07 16:02:00,67.8,63.1,30.01,SW,229,0.0,7.0,85,0.00,,,0.00,396.0,meteohub,2013-06-08 02:02:00,
2013-06-07 16:07:00,68.4,63.7,30.01,WSW,254,4.0,5.0,85,0.00,,,0.00,838.0,meteohub,2013-06-08 02:07:00,
2013-06-07 16:13:00,69.1,64.4,30.01,WNW,288,2.0,6.0,85,0.00,,,0.00,779.0,meteohub,2013-06-08 02:13:00,
2013-06-07 16:18:00,69.6,63.5,30.01,NW,310,3.0,6.0,81,0.00,,,0.00,756.0,meteohub,2013-06-08 02:18:00,
2013-06-07 16:23:00,70.3,63.5,30.01,SW,222,3.0,6.0,79,0.00,,,0.00,854.0,meteohub,2013-06-08 02:23:00,
2013-06-07 16:28:00,70.5,63.7,30.01,WSW,257,2.0,7.0,79,0.00,,,0.00,861.0,meteohub,2013-06-08 02:28:00,
2013-06-07 16:34:00,70.9,64.0,30.01,SW,232,3.0,7.0,79,0.00,,,0.00,367.0,meteohub,2013-06-08 02:34:00,
2013-06-07 16:39:00,70.2,63.3,30.01,WSW,244,1.0,5.0,79,0.00,,,0.00,315.0,meteohub,2013-06-08 02:39:00,
2013-06-07 16:44:00,69.4,63.3,30.01,West,272,0.0,5.0,81,0.00,,,0.00,332.0,meteohub,2013-06-08 02:44:00,
2013-06-07 16:49:00,69.1,63.3,30.01,West,267,0.0,5.0,82,0.00,,,0.00,394.0,meteohub,2013-06-08 02:49:00,
2013-06-07 16:54:00,69.1,63.3,30.01,West,269,1.0,5.0,82,0.00,,,0.00,323.0,meteohub,2013-06-08 02:54:00,
2013-06-07 16:59:00,68.5,62.8,30.01,WSW,248,2.0,5.0,82,0.00,,,0.00,292.0,meteohub,2013-06-08 02:59:00,
2013-06-07 17:04:00,68.4,62.6,30.01,SW,227,0.0,5.0,82,0.00,,,0.00,345.0,meteohub,2013-06-08 03:04:00,
2013-06-07 17:10:00,68.2,62.8,30.01,WSW,245,0.0,5.0,83,0.00,,,0.00,190.0,meteohub,2013-06-08 03:10:00,
2013-06-07 17:15:00,67.8,62.4,30.01,NW,323,0.0,5.0,83,0.00,,,0.00,271.0,meteohub,2013-06-08 03:15:00,
2013-06-07 17:20:00,68.2,63.1,30.01,West,268,0.0,6.0,84,0.00,,,0.00,287.0,meteohub,2013-06-08 03:20:00,
2013-06-07 17:25:00,68.0,62.6,30.01,SW,228,0.0,6.0,83,0.00,,,0.00,250.0,meteohub,2013-06-08 03:25:00,
2013-06-07 17:32:00,67.8,62.8,30.01,West,272,2.0,6.0,84,0.00,,,0.00,202.0,meteohub,2013-06-08 03:32:00,
2013-06-07 17:37:00,67.5,62.4,30.01,SSW,194,0.0,6.0,84,0.00,,,0.00,158.0,meteohub,2013-06-08 03:37:00,
2013-06-07 17:42:00,66.9,62.2,30.01,SW,223,3.0,6.0,85,0.00,,,0.00,178.0,meteohub,2013-06-08 03:42:00,
2013-06-07 17:47:00,66.7,62.4,30.01,SSE,167,0.0,6.0,86,0.00,,,0.00,134.0,meteohub,2013-06-08 03:47:00,
2013-06-07 17:52:00,66.4,62.1,30.02,SSW,202,1.0,5.0,86,0.00,,,0.00,137.0,meteohub,2013-06-08 03:52:00,
2013-06-07 17:57:00,66.2,62.2,30.02,SSE,167,0.0,4.0,87,0.00,,,0.00,120.0,meteohub,2013-06-08 03:57:00,
2013-06-07 18:01:00,66.2,62.2,30.02,WNW,290,1.0,4.0,87,0.00,,,0.00,100.0,meteohub,2013-06-08 04:01:00,
2013-06-07 18:02:00,66.2,62.2,30.02,SW,221,4.0,4.0,87,0.00,,,0.00,97.0,meteohub,2013-06-08 04:02:00,
2013-06-07 18:07:00,66.0,62.4,30.02,NW,304,1.0,5.0,88,0.00,,,0.00,120.0,meteohub,2013-06-08 04:07:00,
2013-06-07 18:12:00,66.0,62.1,30.02,SSW,213,1.0,5.0,87,0.00,,,0.00,120.0,meteohub,2013-06-08 04:12:00,
2013-06-07 18:17:00,66.2,62.2,30.02,WSW,238,0.0,5.0,87,0.00,,,0.00,248.0,meteohub,2013-06-08 04:17:00,
2013-06-07 18:22:00,66.4,62.1,30.02,WSW,249,2.0,5.0,86,0.00,,,0.00,188.0,meteohub,2013-06-08 04:22:00,
2013-06-07 18:27:00,66.4,62.1,30.03,SW,232,0.0,5.0,86,0.00,,,0.00,104.0,meteohub,2013-06-08 04:27:00,
2013-06-07 18:32:00,66.4,62.1,30.03,SSW,194,3.0,5.0,86,0.00,,,0.00,113.0,meteohub,2013-06-08 04:32:00,
2013-06-07 18:37:00,66.0,62.1,30.03,WSW,242,2.0,5.0,87,0.00,,,0.00,53.0,meteohub,2013-06-08 04:37:00,
2013-06-07 18:42:00,65.5,61.9,30.03,WSW,241,2.0,5.0,88,0.00,,,0.00,39.0,meteohub,2013-06-08 04:42:00,
2013-06-07 18:47:00,65.1,61.9,30.03,WSW,244,0.0,4.0,89,0.00,,,0.00,39.0,meteohub,2013-06-08 04:47:00,
2013-06-07 18:52:00,64.9,61.7,30.03,WSW,251,1.0,3.0,89,0.00,,,0.00,21.0,meteohub,2013-06-08 04:52:00,
2013-06-07 18:57:00,64.8,61.5,30.04,WSW,252,1.0,2.0,89,0.00,,,0.00,14.0,meteohub,2013-06-08 04:57:00,
2013-06-07 19:02:00,64.2,61.2,30.04,West,267,0.0,2.0,90,0.00,,,0.00,5.0,meteohub,2013-06-08 05:02:00,
2013-06-07 19:07:00,64.0,61.0,30.04,WSW,253,0.0,2.0,90,0.00,,,0.00,0.0,meteohub,2013-06-08 05:07:00,
2013-06-07 19:12:00,63.7,61.0,30.04,North,0,0.0,2.0,91,0.00,,,0.00,0.0,meteohub,2013-06-08 05:12:00,
2013-06-07 19:17:00,63.3,60.6,30.04,SW,225,0.0,2.0,91,0.00,,,0.00,0.0,meteohub,2013-06-08 05:17:00,
2013-06-07 19:23:00,63.1,60.8,30.05,SW,225,0.0,2.0,92,0.00,,,0.00,0.0,meteohub,2013-06-08 05:23:00,
2013-06-07 19:28:00,63.0,60.6,30.05,North,0,0.0,1.0,92,0.00,,,0.00,0.0,meteohub,2013-06-08 05:28:00,
2013-06-07 19:33:00,63.0,60.6,30.05,SW,225,0.0,1.0,92,0.00,,,0.00,0.0,meteohub,2013-06-08 05:33:00,
2013-06-07 19:38:00,62.8,60.8,30.05,SW,225,0.0,1.0,93,0.00,,,0.00,0.0,meteohub,2013-06-08 05:38:00,
2013-06-07 19:43:00,62.8,60.8,30.06,SW,218,0.0,1.0,93,0.00,,,0.00,0.0,meteohub,2013-06-08 05:43:00,
2013-06-07 19:48:00,62.4,60.4,30.06,SSE,150,0.0,2.0,93,0.00,,,0.00,0.0,meteohub,2013-06-08 05:48:00,
2013-06-07 19:53:00,62.2,60.4,30.06,SSE,149,0.0,2.0,94,0.00,,,0.00,0.0,meteohub,2013-06-08 05:53:00,
2013-06-07 19:58:00,62.2,60.4,30.06,SSE,153,0.0,2.0,94,0.00,,,0.00,0.0,meteohub,2013-06-08 05:58:00,
2013-06-07 20:03:00,62.2,60.4,30.06,SSE,149,0.0,2.0,94,0.00,,,0.00,0.0,meteohub,2013-06-08 06:03:00,
2013-06-07 20:08:00,62.2,60.4,30.06,SSE,150,0.0,1.0,94,0.00,,,0.00,0.0,meteohub,2013-06-08 06:08:00,
2013-06-07 20:13:00,62.2,60.4,30.06,SSE,152,0.0,0.0,94,0.00,,,0.00,0.0,meteohub,2013-06-08 06:13:00,
2013-06-07 20:18:00,62.2,60.4,30.07,SSE,152,0.0,0.0,94,0.00,,,0.00,0.0,meteohub,2013-06-08 06:18:00,
2013-06-07 20:23:00,62.2,60.4,30.07,SSE,150,0.0,0.0,94,0.00,,,0.00,0.0,meteohub,2013-06-08 06:23:00,
2013-06-07 20:28:00,62.2,60.4,30.07,SSE,151,0.0,2.0,94,0.00,,,0.00,0.0,meteohub,2013-06-08 06:28:00,
2013-06-07 20:33:00,62.2,60.4,30.07,SSE,150,0.0,2.0,94,0.00,,,0.00,0.0,meteohub,2013-06-08 06:33:00,
2013-06-07 20:38:00,62.2,60.4,30.07,SSE,152,0.0,2.0,94,0.00,,,0.00,0.0,meteohub,2013-06-08 06:38:00,
2013-06-07 20:43:00,62.2,60.4,30.08,North,0,0.0,0.0,94,0.00,,,0.00,0.0,meteohub,2013-06-08 06:43:00,
2013-06-07 20:48:00,62.2,60.4,30.08,SW,219,0.0,1.0,94,0.00,,,0.00,0.0,meteohub,2013-06-08 06:48:00,
2013-06-07 20:53:00,62.2,60.4,30.08,SW,221,0.0,1.0,94,0.00,,,0.00,0.0,meteohub,2013-06-08 06:53:00,
2013-06-07 20:58:00,62.2,60.4,30.08,SW,219,0.0,1.0,94,0.00,,,0.00,0.0,meteohub,2013-06-08 06:58:00,
2013-06-07 21:03:00,62.1,60.3,30.08,SW,219,0.0,0.0,94,0.00,,,0.00,0.0,meteohub,2013-06-08 07:03:00,
2013-06-07 21:08:00,62.1,60.3,30.08,SW,219,0.0,0.0,94,0.00,,,0.00,0.0,meteohub,2013-06-08 07:08:00,
2013-06-07 21:13:00,61.9,60.1,30.09,SW,219,0.0,0.0,94,0.00,,,0.00,0.0,meteohub,2013-06-08 07:13:00,
2013-06-07 21:18:00,61.9,60.4,30.09,SW,219,0.0,0.0,95,0.00,,,0.00,0.0,meteohub,2013-06-08 07:18:00,
2013-06-07 21:23:00,61.9,60.4,30.09,SW,221,0.0,0.0,95,0.00,,,0.00,0.0,meteohub,2013-06-08 07:23:00,
2013-06-07 21:28:00,61.9,60.4,30.09,SW,219,0.0,0.0,95,0.00,,,0.00,0.0,meteohub,2013-06-08 07:28:00,
2013-06-07 21:33:00,61.9,60.4,30.09,SW,217,0.0,0.0,95,0.00,,,0.00,0.0,meteohub,2013-06-08 07:33:00,
2013-06-07 21:38:00,61.9,60.1,30.10,SW,220,0.0,0.0,94,0.00,,,0.00,0.0,meteohub,2013-06-08 07:38:00,
2013-06-07 21:43:00,61.9,60.1,30.09,SW,219,0.0,0.0,94,0.00,,,0.00,0.0,meteohub,2013-06-08 07:43:00,
2013-06-07 21:48:00,61.9,60.1,30.09,SW,221,0.0,0.0,94,0.00,,,0.00,0.0,meteohub,2013-06-08 07:48:00,
2013-06-07 21:53:00,61.9,60.1,30.10,SW,219,0.0,0.0,94,0.00,,,0.00,0.0,meteohub,2013-06-08 07:53:00,
2013-06-07 21:58:00,61.9,60.1,30.09,SW,218,0.0,0.0,94,0.00,,,0.00,0.0,meteohub,2013-06-08 07:58:00,
2013-06-07 22:03:00,61.9,60.1,30.09,North,0,0.0,0.0,94,0.00,,,0.00,0.0,meteohub,2013-06-08 08:03:00,
2013-06-07 22:08:00,61.7,59.9,30.09,SW,219,0.0,0.0,94,0.00,,,0.00,0.0,meteohub,2013-06-08 08:08:00,
2013-06-07 22:13:00,61.3,59.5,30.09,SW,219,0.0,1.0,94,0.00,,,0.00,0.0,meteohub,2013-06-08 08:13:00,
2013-06-07 22:18:00,61.0,59.2,30.09,SSE,167,0.0,1.0,94,0.00,,,0.00,0.0,meteohub,2013-06-08 08:18:00,
2013-06-07 22:23:00,60.8,59.0,30.09,SE,140,0.0,2.0,94,0.00,,,0.00,0.0,meteohub,2013-06-08 08:23:00,
2013-06-07 22:29:00,60.4,58.5,30.09,SE,141,0.0,2.0,93,0.00,,,0.00,0.0,meteohub,2013-06-08 08:29:00,
2013-06-07 22:34:00,60.1,57.7,30.10,SE,140,0.0,2.0,92,0.00,,,0.00,0.0,meteohub,2013-06-08 08:34:00,
2013-06-07 22:39:00,59.7,57.4,30.10,SE,141,1.0,2.0,92,0.00,,,0.00,0.0,meteohub,2013-06-08 08:39:00,
2013-06-07 22:44:00,59.7,57.7,30.10,SE,141,0.0,1.0,93,0.00,,,0.00,0.0,meteohub,2013-06-08 08:44:00,
2013-06-07 22:49:00,59.7,57.9,30.10,SE,143,0.0,1.0,94,0.00,,,0.00,0.0,meteohub,2013-06-08 08:49:00,
2013-06-07 22:54:00,59.7,57.9,30.10,SE,142,0.0,1.0,94,0.00,,,0.00,0.0,meteohub,2013-06-08 08:54:00,
2013-06-07 22:59:00,59.5,57.6,30.10,SE,140,0.0,1.0,93,0.00,,,0.00,0.0,meteohub,2013-06-08 08:59:00,
2013-06-07 23:04:00,59.5,57.6,30.10,SE,140,0.0,1.0,93,0.00,,,0.00,0.0,meteohub,2013-06-08 09:04:00,
2013-06-07 23:09:00,59.7,57.7,30.10,SE,139,0.0,1.0,93,0.00,,,0.00,0.0,meteohub,2013-06-08 09:09:00,
2013-06-07 23:14:00,59.7,57.7,30.10,SE,140,0.0,1.0,93,0.00,,,0.00,0.0,meteohub,2013-06-08 09:14:00,
2013-06-07 23:19:00,60.1,58.3,30.10,SE,140,0.0,0.0,94,0.00,,,0.00,0.0,meteohub,2013-06-08 09:19:00,
2013-06-07 23:24:00,60.1,58.1,30.10,ESE,108,0.0,0.0,93,0.00,,,0.00,0.0,meteohub,2013-06-08 09:24:00,
2013-06-07 23:29:00,59.7,56.8,30.09,ESE,105,0.0,1.0,90,0.00,,,0.00,0.0,meteohub,2013-06-08 09:29:00,
2013-06-07 23:34:00,59.7,56.5,30.09,ESE,105,0.0,2.0,89,0.00,,,0.00,0.0,meteohub,2013-06-08 09:34:00,
2013-06-07 23:39:00,59.5,56.7,30.09,ESE,108,1.0,2.0,90,0.00,,,0.00,0.0,meteohub,2013-06-08 09:39:00,
2013-06-07 23:44:00,58.8,55.6,30.09,East,82,0.0,2.0,89,0.00,,,0.00,0.0,meteohub,2013-06-08 09:44:00,
2013-06-07 23:49:00,58.6,55.0,30.09,East,98,2.0,3.0,88,0.00,,,0.00,0.0,meteohub,2013-06-08 09:49:00,
2013-06-07 23:54:00,58.5,54.7,30.10,East,91,0.0,3.0,87,0.00,,,0.00,0.0,meteohub,2013-06-08 09:54:00,
2013-06-07 23:59:00,58.5,54.7,30.09,ESE,103,0.0,3.0,87,0.00,,,0.00,0.0,meteohub,2013-06-08 09:59:00,